GW5113 Weather Reports


time (UTC)temp
F
wind
direction
speed
knots
gust
knots
rain 1hr
in
rain 24hr
in
rain mn
in
humidity
%
barometer
mb
20260507044832 50 50 0.0 0.0 0.00 0.00 0.00 99 1016.4
20260507044329 50 50 0.0 0.0 0.00 0.00 0.00 99 1016.5
20260507043825 50 50 0.0 0.0 0.00 0.00 0.00 99 1016.5
20260507043321 50 50 0.0 0.0 0.00 0.00 0.00 99 1016.4
20260507042818 50 50 0.0 0.0 0.00 0.00 0.00 99 1016.4
20260507042313 50 50 0.0 0.0 0.00 0.00 0.00 99 1016.5
20260507041811 50 50 0.0 0.0 0.00 0.00 0.00 99 1016.5
20260507041307 51 50 0.0 0.0 0.00 0.00 0.00 99 1016.4
20260507040804 51 50 0.0 0.0 0.00 0.00 0.00 99 1016.4
20260507040300 51 50 0.0 0.0 0.00 0.00 0.00 99 1016.4
20260507035756 51 50 0.0 0.0 0.00 0.76 0.76 99 1016.3
20260507035252 51 50 0.0 0.0 0.00 0.76 0.76 98 1016.2
20260507034750 51 50 0.9 2.6 0.00 0.76 0.76 96 1016.1
20260507034246 52 57 0.9 3.5 0.07 0.76 0.76 96 1016.2
20260507033745 52 55 0.0 0.9 0.12 0.76 0.76 98 1016.2
20260507033242 52 55 0.0 1.7 0.05 0.75 0.75 99 1016.1
20260507032739 54 59 1.7 6.1 0.00 0.74 0.74 99 1016.0
20260507032235 54 47 0.0 0.0 0.00 0.74 0.74 99 1015.8
20260507031732 54 47 0.0 0.0 0.00 0.74 0.74 99 1015.9
20260507031228 54 47 0.0 0.0 0.00 0.74 0.74 99 1015.7
20260507030725 53 47 0.0 0.0 0.00 0.74 0.74 99 1015.5
20260507030223 53 47 0.0 0.0 0.00 0.74 0.74 99 1015.7
20260507025720 54 47 0.0 0.0 0.00 0.74 0.74 99 1015.6
20260507025217 54 47 0.0 0.0 0.00 0.74 0.74 99 1015.7
20260507024715 53 47 0.0 0.0 0.00 0.74 0.74 99 1016.0
20260507024212 53 47 0.0 0.0 0.00 0.74 0.74 99 1015.9
20260507023707 54 47 0.0 0.0 0.00 0.74 0.74 99 1016.0
20260507023205 54 47 0.0 0.0 0.00 0.74 0.74 99 1016.0
20260507022702 54 47 0.0 0.0 0.00 0.74 0.74 99 1016.3
20260507022157 54 47 0.0 0.0 0.00 0.74 0.74 99 1015.9
20260507021654 54 47 0.0 0.0 0.00 0.74 0.74 99 1015.6
20260507021149 54 47 0.0 0.0 0.00 0.74 0.74 99 1015.6
20260507020648 54 47 0.0 0.0 0.00 0.74 0.74 99 1015.6
20260507020144 54 47 0.0 0.0 0.00 0.74 0.74 99 1015.5
20260507015642 54 47 0.0 0.0 0.00 0.74 0.74 99 1015.3
20260507015139 54 47 0.0 0.0 0.00 0.74 0.74 99 1015.3
20260507014636 54 47 0.0 0.0 0.00 0.74 0.74 99 1015.4
20260507014132 54 47 0.0 0.0 0.00 0.74 0.74 99 1015.4
20260507013629 54 47 0.0 0.0 0.00 0.74 0.74 99 1014.9
20260507013125 54 47 0.0 0.0 0.00 0.74 0.74 99 1015.1
20260507012623 54 47 0.0 0.0 0.00 0.74 0.74 99 1015.4
20260507012118 54 47 0.0 0.0 0.00 0.74 0.74 99 1015.4
20260507011617 54 47 0.0 0.0 0.00 0.74 0.74 99 1015.0
20260507011113 54 47 0.0 0.0 0.00 0.74 0.74 99 1015.0
20260507010608 54 47 0.0 0.0 0.00 0.74 0.74 99 1014.9
20260507010104 54 47 0.0 0.0 0.00 0.74 0.74 99 1014.8
20260507005601 54 47 0.0 0.0 0.00 0.74 0.74 99 1014.8
20260507005057 54 47 0.0 0.0 0.00 0.74 0.74 99 1014.9
20260507004554 54 47 0.0 0.0 0.00 0.74 0.74 99 1015.0
20260507004052 54 47 0.0 0.0 0.00 0.74 0.74 99 1014.7
20260507003548 54 47 0.0 0.0 0.00 0.74 0.74 99 1014.8
20260507003043 54 47 0.0 0.0 0.00 0.74 0.74 99 1014.7
20260507002540 54 47 0.0 0.0 0.00 0.74 0.74 99 1014.8
20260507002036 54 47 0.0 0.0 0.00 0.74 0.74 99 1014.6
20260507001532 54 47 0.0 0.0 0.00 0.74 0.74 99 1014.9
20260507001025 55 47 0.0 0.0 0.00 0.74 0.74 99 1014.7
20260507000521 55 47 0.0 0.0 0.00 0.74 0.74 99 1014.8
20260507000016 55 47 0.0 0.0 0.00 0.74 0.74 99 1014.8
20260506235513 55 47 0.0 0.0 0.00 0.74 0.74 99 1014.3
20260506235009 55 47 0.0 0.0 0.00 0.74 0.74 98 1014.2
20260506234507 55 47 0.0 0.0 0.00 0.74 0.74 98 1013.9
20260506234004 55 47 0.0 0.0 0.00 0.74 0.74 98 1014.2
20260506233500 55 47 0.0 0.0 0.00 0.74 0.74 97 1014.1
20260506232956 55 47 0.0 0.0 0.00 0.74 0.74 97 1014.4
20260506232453 55 47 0.0 0.0 0.00 0.74 0.74 97 1014.9
20260506231949 56 47 0.0 0.0 0.00 0.74 0.74 97 1014.6
20260506231446 56 47 0.0 0.0 0.00 0.74 0.74 96 1014.6
20260506230943 56 47 0.0 0.0 0.00 0.74 0.74 95 1014.7
20260506230440 56 47 0.0 0.0 0.00 0.74 0.74 95 1014.4
20260506225936 56 47 0.0 0.0 0.00 0.74 0.74 95 1014.7
20260506225434 56 47 0.0 0.0 0.00 0.74 0.74 94 1014.7
20260506224931 56 47 0.0 0.0 0.00 0.74 0.74 95 1014.7
20260506224428 56 47 0.0 0.0 0.00 0.74 0.74 94 1014.6
20260506223924 57 47 0.0 0.0 0.00 0.74 0.74 94 1014.4
20260506223420 57 47 0.0 0.0 0.00 0.74 0.74 93 1014.6
20260506222917 57 47 0.0 0.0 0.00 0.74 0.74 93 1014.7
20260506222414 57 47 0.0 0.0 0.00 0.74 0.74 92 1014.4
20260506221911 57 47 0.0 0.0 0.00 0.74 0.74 92 1014.4
20260506221408 58 47 0.0 0.0 0.00 0.74 0.74 91 1014.3
20260506220900 57 47 0.0 0.9 0.00 0.74 0.74 90 1014.2
20260506220356 58 47 0.0 0.9 0.00 0.74 0.74 90 1014.4
20260506215853 58 47 0.0 0.0 0.00 0.74 0.74 89 1014.3
20260506215348 58 47 0.0 0.0 0.00 0.74 0.74 88 1014.1
20260506214844 58 47 0.0 0.9 0.00 0.74 0.74 88 1014.0
20260506214341 58 47 0.0 0.9 0.00 0.74 0.74 87 1014.2
20260506213839 58 47 0.9 0.9 0.00 0.74 0.74 90 1014.1
20260506213336 58 47 0.9 1.7 0.00 0.74 0.74 89 1013.8
20260506212834 58 47 0.0 0.9 0.00 0.74 0.74 90 1014.0
20260506212329 58 47 0.0 1.7 0.00 0.74 0.74 90 1014.1
20260506211824 58 47 0.9 0.9 0.00 0.74 0.74 89 1014.0
20260506211321 58 47 0.0 0.0 0.00 0.74 0.74 88 1013.9
20260506210818 58 47 0.0 0.0 0.00 0.74 0.74 87 1014.0
20260506210309 58 47 0.0 0.9 0.00 0.74 0.74 88 1014.2
20260506205806 58 47 0.0 0.9 0.00 0.74 0.74 90 1014.0
20260506205305 57 47 0.0 0.9 0.00 0.74 0.74 88 1014.0
20260506204753 57 47 0.0 1.7 0.00 0.74 0.74 88 1014.0
20260506204251 57 47 0.0 0.9 0.00 0.74 0.74 88 1014.1
20260506203748 58 47 0.0 0.0 0.00 0.74 0.74 88 1014.2
20260506203245 57 47 0.0 0.0 0.00 0.74 0.74 90 1014.0
20260506202742 57 47 0.0 0.9 0.00 0.74 0.74 93 1013.8
20260506202239 57 47 0.0 0.0 0.00 0.74 0.74 88 1013.8
20260506201736 57 47 0.0 0.9 0.00 0.74 0.74 89 1013.8
20260506201232 57 59 0.0 0.9 0.00 0.74 0.74 89 1013.8
20260506200729 56 59 0.0 0.0 0.00 0.74 0.74 90 1013.9
20260506200225 57 59 0.9 0.9 0.00 0.74 0.74 91 1013.9
20260506195721 57 59 0.0 0.9 0.00 0.74 0.74 91 1013.8
20260506195218 56 59 0.0 0.9 0.00 0.74 0.74 90 1013.6
20260506194710 56 59 0.0 0.0 0.00 0.74 0.74 92 1013.8
20260506194206 55 59 0.0 1.7 0.00 0.74 0.74 90 1013.8
20260506193704 56 59 0.0 0.0 0.00 0.74 0.74 91 1013.6
20260506193201 56 59 0.9 1.7 0.00 0.74 0.74 90 1013.8
20260506192658 56 92 0.9 1.7 0.00 0.74 0.74 90 1013.8
20260506192154 56 93 0.0 1.7 0.00 0.74 0.74 90 1013.8
20260506191651 55 93 0.0 0.9 0.00 0.74 0.74 93 1013.7
20260506191147 55 93 0.0 0.0 0.00 0.74 0.74 92 1013.7
20260506190639 55 93 0.0 0.9 0.00 0.74 0.74 92 1013.7
20260506190135 54 94 0.9 1.7 0.00 0.74 0.74 94 1013.6
20260506185633 54 94 0.0 0.9 0.00 0.74 0.74 95 1013.5
20260506185129 54 93 0.9 1.7 0.00 0.74 0.74 95 1013.7
20260506184626 54 109 0.0 1.7 0.00 0.74 0.74 94 1013.6
20260506184124 54 85 0.9 2.6 0.00 0.74 0.74 94 1013.8
20260506183620 54 86 0.9 0.9 0.00 0.74 0.74 95 1013.7
20260506183116 54 80 0.9 0.9 0.00 0.74 0.74 94 1013.7
20260506182613 54 90 0.0 0.9 0.00 0.74 0.74 94 1013.7
20260506182105 53 117 0.0 2.6 0.00 0.74 0.74 94 1013.5
20260506181603 54 282 0.9 3.5 0.00 0.74 0.74 93 1013.5
20260506181059 54 48 3.5 5.2 0.00 0.74 0.74 94 1013.6
20260506180555 54 151 0.0 3.5 0.00 0.74 0.74 93 1013.4
20260506180052 54 35 0.0 2.6 0.00 0.74 0.74 95 1013.1
20260506175548 53 72 1.7 3.5 0.00 0.74 0.74 96 1013.5
20260506175039 53 54 0.9 3.5 0.00 0.74 0.74 96 1013.7
20260506174538 53 126 0.9 1.7 0.00 0.74 0.74 97 1013.6
20260506174034 53 60 0.9 2.6 0.00 0.74 0.74 96 1013.5
20260506173532 54 64 1.7 5.2 0.00 0.74 0.74 96 1013.7
20260506173028 55 30 2.6 2.6 0.00 0.74 0.74 96 1013.7
20260506172526 55 175 1.7 2.6 0.00 0.74 0.74 96 1013.4
20260506172021 54 13 0.0 1.7 0.00 0.74 0.74 96 1013.6
20260506171519 55 262 0.0 1.7 0.00 0.74 0.74 96 1013.3
20260506171017 55 258 1.7 1.7 0.00 0.74 0.74 97 1013.4
20260506170514 55 19 0.9 1.7 0.00 0.74 0.74 96 1013.2
20260506170006 55 41 2.6 2.6 0.00 0.74 0.74 95 1013.1
20260506165504 55 22 0.9 6.1 0.00 0.74 0.74 96 1013.4
20260506164959 55 156 0.0 1.7 0.00 0.74 0.74 97 1013.4
20260506164456 56 67 2.6 6.1 0.00 0.74 0.74 96 1013.4
20260506163954 55 242 0.9 0.9 0.00 0.74 0.74 98 1013.2
20260506163449 55 237 0.0 0.9 0.00 0.74 0.74 99 1013.3
20260506162944 55 50 0.0 0.9 0.00 0.74 0.74 98 1013.1
20260506162442 55 50 0.0 0.0 0.00 0.74 0.74 99 1013.4
20260506161934 55 50 0.9 1.7 0.00 0.74 0.74 98 1013.4
20260506161432 55 41 0.0 0.9 0.00 0.74 0.74 98 1013.2
20260506160928 55 41 0.0 1.7 0.00 0.74 0.74 98 1013.2
20260506160425 55 51 0.0 1.7 0.00 0.74 0.74 98 1013.3
20260506155923 55 74 0.9 1.7 0.00 0.74 0.74 98 1013.1
20260506155420 55 57 0.0 2.6 0.00 0.74 0.74 98 1013.1
20260506153542 55 42 0.9 3.5 0.00 0.74 0.74 98 1012.5
20260506153039 56 74 1.7 3.5 0.07 0.74 0.74 99 1012.4
20260506152536 56 60 0.0 2.6 0.07 0.74 0.74 99 1012.3
20260506152034 56 159 0.0 2.6 0.00 0.73 0.73 99 1012.4
20260506151532 56 61 0.9 2.6 0.05 0.73 0.73 99 1012.1
20260506151029 58 153 0.9 5.2 0.12 0.73 0.73 99 1011.9
20260506150525 59 218 1.7 2.6 0.07 0.72 0.72 99 1011.7
20260506150022 60 73 0.9 0.9 0.00 0.71 0.71 99 1011.5
20260506145519 60 73 0.0 1.7 0.00 0.71 0.71 99 1011.4
20260506145016 60 73 0.0 0.0 0.00 0.71 0.71 99 1011.2
20260506144513 60 73 0.0 0.0 0.00 0.71 0.71 99 1011.3
20260506144011 60 73 0.9 0.9 0.00 0.71 0.71 99 1011.3
20260506143508 59 73 0.0 0.0 0.00 0.71 0.71 99 1011.2
20260506143006 60 73 0.0 0.0 0.00 0.71 0.71 99 1011.3
20260506142503 59 73 0.0 0.0 0.00 0.71 0.71 99 1011.1
20260506142001 59 73 0.0 0.0 0.05 0.71 0.71 99 1011.2
20260506141500 59 73 0.0 0.9 0.05 0.71 0.71 99 1011.0
20260506140958 59 73 0.0 0.0 0.00 0.70 0.70 99 1011.0
20260506140455 59 73 0.0 0.0 0.00 0.70 0.70 99 1011.0
20260506135951 59 73 0.0 0.9 0.00 0.70 0.70 99 1010.7
20260506135448 59 73 0.0 0.0 0.00 0.70 0.70 99 1010.9
20260506134944 59 73 0.0 0.0 0.00 0.70 0.70 99 1010.4
20260506134440 59 74 1.7 1.7 0.00 0.70 0.70 99 1010.2
20260506133937 59 84 0.0 0.0 0.00 0.70 0.70 99 1010.0
20260506133434 59 84 0.0 0.0 0.07 0.70 0.70 99 1010.1
20260506132931 59 84 0.0 0.9 0.07 0.70 0.70 99 1010.0
20260506132428 59 84 0.0 0.0 0.00 0.69 0.69 99 1010.4
20260506131925 59 84 0.0 0.0 0.05 0.69 0.69 99 1010.2
20260506131422 58 84 0.0 0.0 0.12 0.69 0.69 99 1010.4
20260506130919 58 84 0.0 0.0 0.07 0.68 0.68 99 1010.2
20260506130415 58 84 0.0 0.9 0.00 0.67 0.67 99 1010.4
20260506125914 58 84 0.0 0.0 0.00 0.67 0.67 99 1010.2
20260506125412 58 84 0.0 0.0 0.00 0.67 0.67 99 1010.2
20260506124910 58 84 0.0 0.9 0.00 0.67 0.67 99 1010.1
20260506124406 58 84 0.0 0.0 0.00 0.67 0.67 99 1010.1
20260506123904 58 84 0.0 0.0 0.05 0.67 0.67 99 1010.0
20260506123402 58 84 0.0 0.0 0.05 0.67 0.67 99 1010.0
20260506122859 58 84 0.0 0.0 0.00 0.66 0.66 99 1010.0
20260506122356 58 84 0.0 0.0 0.00 0.66 0.66 99 1010.0
20260506121854 58 84 1.7 1.7 0.00 0.66 0.66 99 1009.9
20260506121351 58 173 0.0 0.9 0.00 0.66 0.66 99 1009.9
20260506120848 58 59 0.0 0.0 0.00 0.66 0.66 99 1009.7
20260506120345 58 59 0.0 0.0 0.00 0.66 0.66 99 1009.8
20260506115843 58 59 0.0 0.9 0.07 0.66 0.66 99 1009.8
20260506115341 58 59 0.0 0.0 0.07 0.66 0.66 99 1009.8
20260506114839 58 76 0.0 0.0 0.07 0.65 0.65 99 1009.8
20260506114336 58 86 0.0 0.0 0.12 0.65 0.65 99 1009.7
20260506113835 57 87 0.0 0.0 0.17 0.64 0.64 99 1010.1
20260506113332 57 87 0.0 0.0 0.12 0.62 0.62 99 1009.9
20260506112828 57 87 0.0 0.0 0.07 0.61 0.61 99 1010.2
20260506112325 57 87 0.0 0.0 0.00 0.60 0.60 99 1010.0
20260506111823 57 88 0.0 0.0 0.05 0.60 0.60 99 1009.9
20260506111321 57 88 0.0 0.0 0.05 0.60 0.60 99 1009.8
20260506110818 57 88 0.0 0.0 0.07 0.59 0.59 99 1009.7
20260506110315 57 88 0.0 0.0 0.07 0.59 0.59 99 1009.6
20260506105812 57 88 0.0 0.0 0.00 0.58 0.58 99 1009.6
20260506105308 57 88 0.0 0.0 0.05 0.58 0.58 99 1009.6
20260506104806 57 88 0.0 0.0 0.12 0.58 0.58 99 1009.5
20260506104304 57 88 0.0 0.0 0.19 0.57 0.57 99 1009.4
20260506103801 57 168 0.0 0.0 0.26 0.55 0.55 99 1009.4
20260506103258 57 163 0.0 0.0 0.19 0.53 0.53 99 1009.6
20260506102756 57 164 0.0 0.0 0.12 0.51 0.51 99 1009.4
20260506102254 57 163 0.0 0.0 0.12 0.50 0.50 99 1009.2
20260506101750 57 165 0.0 0.0 0.12 0.49 0.49 99 1009.3
20260506101247 57 144 0.0 0.9 0.19 0.48 0.48 99 1009.2
20260506100745 57 207 0.0 0.0 0.17 0.47 0.47 99 1009.0
20260506100242 57 174 0.0 0.0 0.05 0.45 0.45 99 1009.0
20260506095741 57 174 0.0 0.0 0.07 0.44 0.44 99 1008.9
20260506095238 57 169 0.0 0.0 0.19 0.44 0.44 99 1008.9
20260506094734 57 169 0.0 0.0 0.17 0.43 0.43 99 1008.9
20260506094232 57 150 0.0 0.0 0.19 0.41 0.41 99 1009.1
20260506093731 57 158 0.0 0.0 0.31 0.39 0.39 99 1009.1
20260506093227 57 166 0.0 0.0 0.31 0.37 0.37 99 1009.5
20260506092725 57 140 0.0 0.0 0.12 0.34 0.34 99 1009.4
20260506092223 57 164 0.0 0.0 0.00 0.32 0.32 99 1009.2
20260506091720 57 186 0.0 0.0 0.05 0.32 0.32 99 1009.2
20260506091217 57 200 0.0 0.0 0.12 0.32 0.32 99 1009.4
20260506090715 57 200 0.0 0.0 0.07 0.31 0.31 99 1009.5
20260506090212 57 207 0.0 0.0 0.05 0.30 0.30 99 1009.8
20260506085709 57 181 0.0 0.0 0.12 0.30 0.30 99 1010.0
20260506085205 57 204 0.0 0.0 0.19 0.29 0.29 99 1010.1
20260506084702 57 213 0.0 0.0 0.31 0.27 0.27 99 1009.9
20260506084158 57 187 0.0 0.0 0.19 0.22 0.22 99 1009.9
20260506083656 57 187 0.0 0.0 0.19 0.22 0.22 99 1009.9
20260506083154 57 187 0.0 0.0 0.12 0.19 0.19 99 1010.0
20260506082651 57 187 0.0 0.0 0.35 0.19 0.19 99 1009.8
20260506082150 57 186 0.0 0.0 0.31 0.17 0.17 99 1009.9
20260506081649 57 209 0.0 0.0 0.19 0.13 0.13 99 1009.9
20260506081146 57 170 0.0 0.0 0.12 0.12 0.12 99 1009.5
20260506080644 57 170 0.0 0.0 0.00 0.10 0.10 99 1009.5
20260506080140 56 170 0.0 0.0 0.05 0.10 0.10 99 1009.6
20260506073125 56 186 0.0 0.0 0.00 0.08 0.08 99 1009.6
20260506072621 56 186 0.0 0.0 0.05 0.08 0.08 99 1009.6
20260506072119 56 186 0.0 0.0 0.12 0.08 0.08 99 1009.6
20260506071617 56 186 0.0 0.0 0.07 0.07 0.07 99 1009.6
20260506071114 56 174 0.0 0.0 0.12 0.06 0.06 99 1009.6
20260506070611 56 181 0.0 0.0 0.17 0.06 0.06 99 1010.1
20260506070108 56 199 0.0 0.0 0.05 0.04 0.04 99 1010.1
20260506062045 56 190 0.0 0.0 0.00 0.02 0.02 99 1009.7
20260506061541 56 190 0.0 0.0 0.00 0.02 0.02 99 1009.7
20260506061039 56 190 0.0 0.0 0.00 0.02 0.02 99 1009.5
20260506060537 56 190 0.0 0.0 0.00 0.02 0.02 99 1009.7
20260506051006 57 190 0.0 0.0 0.00 0.01 0.01 99 1010.5
20260506050504 57 189 0.0 0.0 0.00 0.01 0.01 99 1010.7